Weather History for Bellefontaine, OH

Change the Weather History Date:

Friday, March 8, 2013

  Actual Average (KDAY) Record (KDAY)
Temperature  
Mean Temperature 30 °F 37 °F  
Max Temperature 37 °F 46 °F 77 °F (1974)
Min Temperature 23 °F 29 °F 1 °F (1960)
Degree Days  
Heating Degree Days 35 28  
Month to date heating degree days 231  
Since 1 July heating degree days 4506  
Cooling Degree Days 0 0  
Month to date cooling degree days 0  
Year to date cooling degree days 0  
Moisture  
Dew Point 25 °F    
Average Humidity 79    
Maximum Humidity 100    
Minimum Humidity 60    
Precipitation  
Precipitation 0.00 in 0.10 in 0.71 in (1919)
Month to date precipitation 0.73  
Year to date precipitation 5.68  
Snow  
Snow 0.00 in 0.10 in 10.30 in (2008)
Month to date snowfall 1.2  
Since 1 July snowfall 20.5  
Snow Depth -    
Sea Level Pressure  
Sea Level Pressure 30.39 in    
Wind  
Wind Speed 4 mph (NNE)    
Max Wind Speed 9 mph    
Max Gust Speed -    
Visibility 10 miles    
Events      
T = Trace of Precipitation, MM = Missing Value Source: NWS Daily Summary

Daily Weather History Graph

Daily Weather History Graph

Search for Another Location

Airport:

Trip Planner

Search our weather history database for the weather conditions in past years. The results will help you decide how hot, cold, wet, or windy it might be!

Date:

Astronomy

Mar. 08, 2013 Rise Set
Actual Time 6:57 AM EST 6:34 PM EST
Civil Twilight 6:30 AM EST 7:02 PM EST
Nautical Twilight 5:59 AM EST 7:33 PM EST
Astronomical Twilight 5:27 AM EST 8:05 PM EST
Moon 4:41 AM EST (3/8) 3:28 PM EST (3/8)
Length of Visible Light 12h 31m
Length of Day
11h 37m
Waning Crescent, 12% of the Moon is Illuminated
Mar 8
Waning Crescent
Mar 11
New
Mar 19
First Quarter
Mar 27
Full
Apr 3
Last Quarter

Hourly Weather History & Observations

Time (EST) Temp. Windchill Dew Point Humidity Pressure Visibility Wind Dir Wind Speed Gust Speed Precip Events Conditions
12:10 AM 30.2 °F 24.3 °F 26.6 °F 86% 30.33 in 10.0 mi North 5.8 mph - 0.00 in   Overcast
12:30 AM 30.2 °F 26.7 °F 26.6 °F 86% 30.33 in 10.0 mi NNE 3.5 mph - 0.00 in   Mostly Cloudy
1:10 AM 30.2 °F - 24.8 °F 80% 30.34 in 10.0 mi Calm Calm - 0.00 in   Mostly Cloudy
1:30 AM 30.2 °F - 26.6 °F 86% 30.35 in 10.0 mi Calm Calm - 0.00 in   Overcast
1:50 AM 28.4 °F - 24.8 °F 86% 30.35 in 10.0 mi Calm Calm - 0.00 in   Overcast
2:10 AM 30.2 °F 25.4 °F 24.8 °F 80% 30.35 in 10.0 mi NNW 4.6 mph - 0.00 in   Overcast
2:30 AM 30.2 °F 25.4 °F 24.8 °F 80% 30.35 in 10.0 mi NNW 4.6 mph - 0.00 in   Overcast
2:50 AM 30.2 °F 24.3 °F 26.6 °F 86% 30.34 in 10.0 mi NNE 5.8 mph - 0.00 in   Overcast
3:10 AM 30.2 °F 23.4 °F 26.6 °F 86% 30.35 in 10.0 mi NNE 6.9 mph - 0.00 in   Overcast
3:30 AM 30.2 °F 23.4 °F 26.6 °F 86% 30.34 in 10.0 mi NNE 6.9 mph - 0.00 in   Mostly Cloudy
3:50 AM 28.4 °F 22.2 °F 23.0 °F 80% 30.34 in 10.0 mi NNE 5.8 mph - 0.00 in   Scattered Clouds
4:10 AM 28.4 °F 23.3 °F 23.0 °F 80% 30.35 in 10.0 mi North 4.6 mph - 0.00 in   Clear
4:30 AM 26.6 °F 22.6 °F 23.0 °F 86% 30.36 in 10.0 mi North 3.5 mph - 0.00 in   Clear
4:50 AM 26.6 °F 21.2 °F 23.0 °F 86% 30.37 in 10.0 mi North 4.6 mph - 0.00 in   Clear
5:10 AM 24.8 °F 20.5 °F 21.2 °F 86% 30.37 in 10.0 mi North 3.5 mph - 0.00 in   Clear
5:30 AM 24.8 °F - 23.0 °F 93% 30.38 in 10.0 mi Calm Calm - 0.00 in   Clear
5:50 AM 24.8 °F - 23.0 °F 93% 30.39 in 10.0 mi Calm Calm - 0.00 in   Clear
6:10 AM 23.0 °F - 23.0 °F 100% 30.39 in 10.0 mi Calm Calm - 0.00 in   Clear
6:30 AM 23.0 °F - 21.2 °F 93% 30.39 in 10.0 mi Calm Calm - 0.00 in   Clear
6:50 AM 23.0 °F - 23.0 °F 100% 30.40 in 10.0 mi Calm Calm - 0.00 in   Clear
7:10 AM 23.0 °F - 21.2 °F 93% 30.41 in 10.0 mi Calm Calm - 0.00 in   Clear
7:30 AM 23.0 °F 17.0 °F 23.0 °F 100% 30.41 in 10.0 mi NE 4.6 mph - 0.00 in   Clear
7:50 AM 23.0 °F - 21.2 °F 93% 30.41 in 10.0 mi Calm Calm - 0.00 in   Clear
8:10 AM 23.0 °F - 21.2 °F 93% 30.42 in 9.0 mi Calm Calm - 0.00 in   Clear
8:30 AM 26.6 °F - 23.0 °F 86% 30.42 in 10.0 mi Calm Calm - 0.00 in   Clear
8:50 AM 28.4 °F - 23.0 °F 80% 30.43 in 10.0 mi Calm Calm - 0.00 in   Clear
9:10 AM 30.2 °F - 21.2 °F 69% 30.43 in 10.0 mi Calm Calm - 0.00 in   Clear
9:30 AM 30.2 °F 23.4 °F 21.2 °F 69% 30.43 in 10.0 mi NE 6.9 mph - 0.00 in   Clear
9:50 AM 32.0 °F 24.8 °F 21.2 °F 64% 30.43 in 10.0 mi NE 8.1 mph - 0.00 in   Clear
10:10 AM 32.0 °F 24.2 °F 21.2 °F 64% 30.43 in 10.0 mi NE 9.2 mph - 0.00 in   Clear
10:30 AM 32.0 °F 25.6 °F 21.2 °F 64% 30.44 in 10.0 mi NE 6.9 mph - 0.00 in   Clear
10:50 AM 32.0 °F 24.8 °F 23.0 °F 69% 30.43 in 10.0 mi ENE 8.1 mph - 0.00 in   Clear
11:10 AM 32.0 °F 25.6 °F 23.0 °F 69% 30.43 in 10.0 mi NE 6.9 mph - 0.00 in   Clear
11:30 AM 32.0 °F 26.4 °F 23.0 °F 69% 30.44 in 10.0 mi NNE 5.8 mph - 0.00 in   Clear
11:50 AM 32.0 °F 27.5 °F 23.0 °F 69% 30.44 in 10.0 mi NE 4.6 mph - 0.00 in   Clear
12:10 PM 33.8 °F 27.7 °F 23.0 °F 65% 30.44 in 10.0 mi ENE 6.9 mph - 0.00 in   Clear
12:30 PM 33.8 °F 27.7 °F 23.0 °F 65% 30.44 in 10.0 mi NE 6.9 mph - 0.00 in   Clear
12:50 PM 33.8 °F 28.6 °F 23.0 °F 65% 30.43 in 10.0 mi NE 5.8 mph - 0.00 in   Clear
1:10 PM 33.8 °F - 23.0 °F 65% 30.42 in 10.0 mi Calm Calm - 0.00 in   Clear
1:30 PM 35.6 °F 30.7 °F 24.8 °F 65% 30.41 in 10.0 mi North 5.8 mph - 0.00 in   Clear
1:50 PM 35.6 °F 31.7 °F 23.0 °F 60% 30.40 in 10.0 mi NNW 4.6 mph - 0.00 in   Clear
2:10 PM 35.6 °F 30.7 °F 24.8 °F 65% 30.40 in 10.0 mi NNW 5.8 mph - 0.00 in   Clear
2:30 PM 35.6 °F 29.9 °F 24.8 °F 65% 30.40 in 10.0 mi NNW 6.9 mph - 0.00 in   Clear
2:50 PM 35.6 °F 31.7 °F 26.6 °F 70% 30.40 in 10.0 mi NW 4.6 mph - 0.00 in   Clear
3:10 PM 35.6 °F 31.7 °F 26.6 °F 70% 30.40 in 10.0 mi NW 4.6 mph - 0.00 in   Clear
3:30 PM 35.6 °F 30.7 °F 24.8 °F 65% 30.40 in 10.0 mi NW 5.8 mph - 0.00 in   Clear
3:50 PM 35.6 °F 30.7 °F 26.6 °F 70% 30.39 in 10.0 mi NNW 5.8 mph - 0.00 in   Clear
4:10 PM 35.6 °F 32.8 °F 24.8 °F 65% 30.38 in 10.0 mi NNW 3.5 mph - 0.00 in   Clear
4:30 PM 37.4 °F 32.8 °F 26.6 °F 65% 30.38 in 10.0 mi North 5.8 mph - 0.00 in   Clear
4:50 PM 37.4 °F 32.1 °F 26.6 °F 65% 30.37 in 10.0 mi North 6.9 mph - 0.00 in   Clear
5:10 PM 37.4 °F 32.8 °F 26.6 °F 65% 30.38 in 10.0 mi North 5.8 mph - 0.00 in   Clear
5:30 PM 35.6 °F 30.7 °F 28.4 °F 75% 30.38 in 10.0 mi North 5.8 mph - 0.00 in   Clear
5:50 PM 35.6 °F 29.9 °F 28.4 °F 75% 30.37 in 10.0 mi North 6.9 mph - 0.00 in   Clear
6:10 PM 35.6 °F 29.9 °F 26.6 °F 70% 30.37 in 10.0 mi NNE 6.9 mph - 0.00 in   Clear
6:30 PM 33.8 °F 28.6 °F 26.6 °F 75% 30.36 in 10.0 mi NNE 5.8 mph - 0.00 in   Clear
6:50 PM 33.8 °F 30.8 °F 26.6 °F 75% 30.36 in 10.0 mi North 3.5 mph - 0.00 in   Clear
7:10 PM 32.0 °F - 26.6 °F 80% 30.37 in 10.0 mi Calm Calm - 0.00 in   Clear
7:30 PM 32.0 °F - 26.6 °F 80% 30.37 in 10.0 mi Calm Calm - 0.00 in   Clear
7:50 PM 32.0 °F - 26.6 °F 80% 30.38 in 10.0 mi Calm Calm - 0.00 in   Clear
8:10 PM 32.0 °F - 26.6 °F 80% 30.38 in 10.0 mi Calm Calm - 0.00 in   Clear
8:30 PM 32.0 °F - 26.6 °F 80% 30.39 in 10.0 mi Calm Calm - 0.00 in   Clear
8:50 PM 30.2 °F - 26.6 °F 86% 30.38 in 10.0 mi Calm Calm - 0.00 in   Clear
9:10 PM 30.2 °F - 26.6 °F 86% 30.38 in 10.0 mi Calm Calm - 0.00 in   Clear
9:30 PM 30.2 °F 25.4 °F 26.6 °F 86% 30.38 in 10.0 mi ENE 4.6 mph - 0.00 in   Clear
9:50 PM 28.4 °F - 26.6 °F 93% 30.38 in 10.0 mi Calm Calm - 0.00 in   Clear
10:10 PM 28.4 °F - 26.6 °F 93% 30.38 in 10.0 mi Calm Calm - 0.00 in   Clear
10:30 PM 28.4 °F - 26.6 °F 93% 30.39 in 10.0 mi Calm Calm - 0.00 in   Clear
10:50 PM 26.6 °F 22.6 °F 24.8 °F 93% 30.37 in 10.0 mi ENE 3.5 mph - 0.00 in   Clear
11:10 PM 30.2 °F 25.4 °F 26.6 °F 86% 30.36 in 10.0 mi ENE 4.6 mph - 0.00 in   Clear
11:30 PM 30.2 °F 24.3 °F 26.6 °F 86% 30.36 in 10.0 mi ENE 5.8 mph - 0.00 in   Clear
11:50 PM 32.0 °F 25.6 °F 28.4 °F 87% 30.36 in 10.0 mi East 6.9 mph - 0.00 in   Clear